Regional Weather Roundup
Issued by NWS

Home | Current Version | Previous Version | Graphics & Text | Print | Product List | Glossary On
Versions: 1 2 3 4 5 6 7 8 9 10 11 12 13 14 15 16 17 18 19 20 21 22 23 24 25 26 27 28
000
ASUS45 KBOU 261207
RWRCO

WEATHER ROUNDUP FOR COLORADO
NATIONAL WEATHER SERVICE DENVER/BOULDER CO
600 AM MDT MON JUN 26 2017

NOTE: "FAIR" INDICATES FEW OR NO CLOUDS BELOW 12000 FEET WITH NO
SIGNIFICANT WEATHER AND/OR OBSTRUCTIONS TO VISIBILITY.

COZ001>005-013-030-031-261300-
...NORTHWEST COLORADO...

CITY           SKY/WX    TMP DP  RH WIND       PRES   REMARKS
CRAIG          FAIR      41  35  79 SE3       30.33R
HAYDEN         FAIR      48  28  46 E14       30.34R
MEEKER         FAIR      44  32  62 NE6       30.33R
RABBIT EARS PA FAIR      50  25  37 CALM      30.59S
STEAMBOAT SPGS FAIR      42  32  70 CALM      30.37S
WALDEN         FAIR      34  28  80 SE5       30.47R WCI  30
$$

COZ006>008-011-261300-
...WEST CENTRAL VALLEYS...

CITY           SKY/WX    TMP DP  RH WIND       PRES   REMARKS
GRAND JUNCTION FAIR      65  30  27 SE14      30.18R
MONTROSE       FAIR      57  30  35 SE10      30.28R
EAGLE          FAIR      45  30  55 SE3       30.41R
RIFLE          FAIR      52  31  44 E5        30.27R
DELTA          FAIR      57  30  35 NE3       30.23R
NUCLA          FAIR      55  27  33 E9        30.29R
$$

COZ017>023-064>068-261300-
...SOUTHWEST COLORADO...

CITY           SKY/WX    TMP DP  RH WIND       PRES   REMARKS
DURANGO        FAIR      52  37  56 CALM      30.35R
CORTEZ         FAIR      46  35  65 SW3       30.27R
PAGOSA SPRINGS FAIR      50  39  66 CALM      30.43R
TELLURIDE      FAIR      51  27  39 SE6       30.51R
WOLF CREEK PAS FAIR      43  36  75 CALM      30.73R
$$

COZ009-010-012-014-032>034-037-058>063-261300-
...CENTRAL COLORADO...

CITY           SKY/WX    TMP DP  RH WIND       PRES   REMARKS
ASPEN          FAIR      46  32  58 SW6       30.42R
BUENA VISTA    FAIR      52  45  77 CALM      30.47S
COPPER MTN     FAIR      46  27  46 W3        30.69S
BERTHOUD PASS  FAIR      37  27  65 NW5       30.72R
COTTONWOOD PAS FAIR      52  43  71 CALM      30.58R
GUNNISON       FAIR      43  33  68 SE3       30.45R
KREMMLING      NOT AVBL
LEADVILLE      MOCLDY    45  39  79 CALM      30.57R
MONARCH PASS     N/A     43  39  87 CALM      30.79S
SALIDA         FAIR      55  49  80 W6        30.52R
SUNLIGHT       FAIR      46  19  34 NE5       30.63S
WILKERSON PASS SNOW      43  43 100 W5        30.68S VSB<1/4
$$

COZ069>075-261300-
...SAN LUIS VALLEY/SANGRE DE CRISTO MOUNTAINS...

CITY           SKY/WX    TMP DP  RH WIND       PRES   REMARKS
ALAMOSA        FAIR      47  45  93 S7        30.42R
DEL NORTE      FAIR      46  35  67 W12       30.46R
LA VETA PASS   FOG       45  45 100 CALM      30.69R VSB<1/4
SAGUACHE       FAIR      48  39  71 N7        30.46R
$$

COZ035-036-038>040-261300-
...NORTHERN COLORADO FRONT RANGE...

CITY           SKY/WX    TMP DP  RH WIND       PRES   REMARKS
DENVER INTL AP FAIR      57  52  83 SW9       30.28S
DMNS CITY PARK   N/A     58  55  89 SW5       30.27S
AURORA         PTCLDY    59  54  84 SW10      30.29R
FRONT RANGE AP FAIR      59  54  82 S7        30.30R
ERIE MUNI ARPT FAIR      50  49  93 CALM      30.28S
BOULDER MUN AP FAIR      54  50  87 CALM      30.28S
CENTENNIAL     FAIR      57  54  89 S6        30.30S
BROOMFIELD     FAIR      55  52  88 NW7       30.30S
FORT COLLINS   FAIR      53  52  96 NE6       30.28S FOG
LONGMONT       FAIR      52  47  82 CALM      30.29S HAZE
$$

COZ041-046-047-076>085-087-088-261300-
...PIKES PEAK/PALMER DIVIDE AND SOUTHERN FOOTHILLS...

CITY           SKY/WX    TMP DP  RH WIND       PRES   REMARKS
COLO. SPRINGS  MOCLDY    58  58 100 S7        30.37F FOG
A. F. ACADEMY  CLOUDY    58  58 100 S5        30.37F
SCHRIEVER AFB  MOCLDY    57  56  98 S9        30.38S FOG
CHEYENNE MTN   FOG       54  54  98 CALM      30.35S VSB 1/2
ELLICOTT       CLOUDY   N/A N/A N/A S6        30.36S
FALCON           N/A     56  55  99 SW7       30.40S
FORT CARSON    CLOUDY    59  59  99 S7        30.35S FOG
LIMON          CLOUDY    58  58 100 S9        30.31F
MONUMENT HILL  FAIR      52  52 100 SW8       30.40S
CANON CITY     CLOUDY    63  63 100 E7        30.34R FOG
WALSENBURG     NOT AVBL
TRINIDAD       CLOUDY    61  57  87 NW3       30.35F FOG
$$

COZ042>045-048>051-090-091-261300-
...NORTHEAST COLORADO...

CITY           SKY/WX    TMP DP  RH WIND       PRES   REMARKS
GREELEY ARPT   FAIR      51  49  92 N6        30.28R
AKRON          FAIR      57  53  86 SW12      30.26S
BURLINGTON     FAIR      58  56  93 SW10      30.27S
WRAY           FAIR     N/A N/A N/A W8        30.24S
YUMA           FAIR      52  52 100 SW5       30.25R
STERLING       FOG       50  50 100 CALM      30.24R VSB 3/4
HOLYOKE        NOT AVBL
FORT MORGAN    FAIR      54  52  94 CALM      30.27R
$$

COZ086-089-092>099-261300-
...SOUTHEAST COLORADO...

CITY           SKY/WX    TMP DP  RH WIND       PRES   REMARKS
PUEBLO         CLOUDY    62  59  90 SE3       30.31R
LA JUNTA       FAIR      57  54  89 NW5       30.28S
LAMAR          CLOUDY    61  56  83 S5        30.25F
SPRINGFIELD      N/A     59  59 100 S6        30.28S
$$




USA.gov is the U.S. government's official web portal to all federal, state and local government web resources and services.